Charlotte, NC

10:26 PM EDT on April 24, 2017 (GMT -0400)
Charlotte-Douglas International

Weather History for KCLT - March, 2015

Change the Weather History Date:

Monday, March 23, 2015

  Actual Average Record
Temperature  
Mean Temperature 58 °F 53 °F  
Max Temperature 65 °F 65 °F 91 °F (1907)
Min Temperature 51 °F 41 °F 20 °F (1888)
Degree Days  
Heating Degree Days 7 12  
Month to date heating degree days 252 346  
Since 1 July heating degree days 3023 3045  
Cooling Degree Days 0 0  
Month to date cooling degree days 7 0  
Year to date cooling degree days 7 0  
Growing Degree Days 8 (Base 50)    
Moisture  
Dew Point 45 °F    
Average Humidity 65    
Maximum Humidity 93    
Minimum Humidity 37    
Precipitation  
Precipitation T in 0.11 in 2.00 in (1979)
Month to date precipitation 1.68 3.02  
Year to date precipitation 7.50 9.75  
Snow  
Snow 0.00 in 0.00 in 0.10 in (1885)
Month to date snowfall 0.0 0.5  
Since 1 July snowfall 3.1 4.2  
Snow Depth 0.00 in    
Sea Level Pressure  
Sea Level Pressure 30.05 in    
Wind  
Wind Speed 7 mph (ENE)    
Max Wind Speed 17 mph    
Max Gust Speed 32 mph    
Visibility 10 miles    
Events Rain    
T = Trace of Precipitation, MM = Missing Value Source: NWS Daily Summary

Daily Weather History Graph

Daily Weather History Graph

Search for Another Location

Airport or City:

Trip Planner

Search our weather history database for the weather conditions in past years. The results will help you decide how hot, cold, wet, or windy it might be!

Date:

Astronomy

Mar. 23, 2015 Rise Set
Actual Time 7:23 AM EDT 7:37 PM EDT
Civil Twilight 6:58 AM EDT 8:03 PM EDT
Nautical Twilight 6:28 AM EDT 8:32 PM EDT
Astronomical Twilight 5:58 AM EDT 9:02 PM EDT
Moon 9:39 AM EDT (3/23) 11:33 PM EDT (3/23)
Length of Visible Light 13h 04m
Length of Day
12h 14m
Waxing Crescent, 15% of the Moon is Illuminated
Mar 23
Waxing Crescent
Mar 27
First Quarter
Apr 4
Full
Apr 11
Last Quarter
Apr 18
New

Hourly Weather History & Observations

Time (EDT) Temp. Dew Point Humidity Pressure Visibility Wind Dir Wind Speed Gust Speed Precip Events Conditions
12:52 AM 55.0 °F 51.1 °F 86% 30.02 in 10.0 mi NW 4.6 mph - 0.01 in Rain Light Rain
1:52 AM 54.0 °F 51.1 °F 90% 30.00 in 10.0 mi Calm Calm - 0.00 in   Overcast
2:52 AM 54.0 °F 52.0 °F 93% 29.98 in 10.0 mi South 3.5 mph - N/A   Overcast
3:52 AM 54.0 °F 52.0 °F 93% 29.96 in 10.0 mi Calm Calm - N/A   Overcast
4:52 AM 53.1 °F 51.1 °F 93% 29.96 in 9.0 mi North 5.8 mph - N/A   Overcast
5:52 AM 54.0 °F 51.1 °F 90% 29.99 in 10.0 mi Calm Calm - N/A   Overcast
6:52 AM 55.0 °F 51.1 °F 86% 30.00 in 10.0 mi Calm Calm - N/A   Overcast
7:52 AM 55.0 °F 51.1 °F 86% 30.02 in 10.0 mi North 4.6 mph - N/A   Overcast
8:52 AM 55.0 °F 51.1 °F 86% 30.04 in 10.0 mi North 9.2 mph - N/A   Overcast
9:16 AM 55.4 °F 51.8 °F 88% 30.05 in 10.0 mi NE 10.4 mph - N/A   Overcast
9:52 AM 55.9 °F 50.0 °F 80% 30.06 in 10.0 mi East 11.5 mph 21.9 mph N/A   Overcast
10:52 AM 53.1 °F 48.9 °F 86% 30.10 in 8.0 mi ENE 12.7 mph 18.4 mph N/A   Overcast
10:59 AM 53.6 °F 48.2 °F 82% 30.11 in 9.0 mi ENE 12.7 mph - N/A   Overcast
11:52 AM 54.0 °F 45.0 °F 72% 30.12 in 10.0 mi ENE 10.4 mph 21.9 mph N/A   Overcast
12:22 PM 53.6 °F 44.6 °F 72% 30.12 in 10.0 mi ENE 10.4 mph - N/A   Overcast
12:52 PM 57.0 °F 44.1 °F 62% 30.11 in 10.0 mi NNE 9.2 mph - N/A   Overcast
1:42 PM 60.8 °F 41.0 °F 48% 30.10 in 10.0 mi NE 5.8 mph 17.3 mph N/A   Scattered Clouds
1:52 PM 60.1 °F 41.0 °F 49% 30.09 in 10.0 mi ENE 6.9 mph - N/A   Overcast
2:52 PM 63.0 °F 39.9 °F 43% 30.06 in 10.0 mi ENE 4.6 mph - N/A   Scattered Clouds
3:52 PM 63.0 °F 37.9 °F 40% 30.04 in 10.0 mi East 4.6 mph - N/A   Clear
4:52 PM 64.9 °F 37.0 °F 36% 30.04 in 10.0 mi ENE 5.8 mph - N/A   Clear
5:52 PM 64.9 °F 37.0 °F 36% 30.04 in 10.0 mi Variable 6.9 mph - N/A   Clear
6:52 PM 63.0 °F 37.0 °F 38% 30.05 in 10.0 mi SSE 4.6 mph - 0.22 in   Clear
7:52 PM 61.0 °F 37.0 °F 41% 30.07 in 10.0 mi ESE 8.1 mph - N/A   Clear
8:52 PM 60.1 °F 36.0 °F 41% 30.08 in 10.0 mi ESE 10.4 mph 18.4 mph N/A   Clear
9:52 PM 57.0 °F 37.0 °F 47% 30.10 in 10.0 mi ESE 9.2 mph - N/A   Clear
10:52 PM 55.9 °F 37.0 °F 49% 30.12 in 10.0 mi ESE 9.2 mph - N/A   Clear
11:52 PM 53.1 °F 37.0 °F 55% 30.14 in 10.0 mi SE 8.1 mph - N/A   Clear